FW8987 Weather Reports


time (UTC)temp
C
wind
direction
speed
KPH
gust
KPH
rain 1hr
cm
rain 24hr
cm
rain mn
cm
humidity
%
barometer
mb
20260901095108 17 239 4.8 11.3 0.00 0.00 0.00 65 1008.5
20260901094022 17 232 4.8 9.7 0.00 0.00 0.00 65 1008.4
20260901093017 17 226 4.8 11.3 0.00 0.00 0.00 63 1008.5
20260901092033 17 242 3.2 6.4 0.00 0.00 0.00 60 1008.4
20260901091028 16 271 4.8 9.7 0.00 0.00 0.00 64 1008.5
20260901090023 16 243 4.8 11.3 0.00 0.00 0.00 65 1008.5
20260901085043 16 231 4.8 6.4 0.00 0.00 0.00 71 1008.5
20260901084034 15 244 3.2 9.7 0.00 0.00 0.00 67 1008.6
20260901083029 15 255 4.8 11.3 0.00 0.00 0.00 69 1008.5
20260901082024 15 244 4.8 12.9 0.00 0.00 0.00 72 1008.5
20260901081019 15 248 3.2 9.7 0.00 0.00 0.00 70 1008.5
20260901080035 15 192 1.6 4.8 0.00 0.00 0.00 71 1008.5
20260901075030 15 226 3.2 6.4 0.00 0.00 0.00 72 1008.4
20260901074025 15 227 3.2 9.7 0.00 0.00 0.00 71 1008.5
20260901073020 14 248 3.2 11.3 0.00 0.00 0.00 76 1008.4
20260901072035 15 255 3.2 9.7 0.00 0.00 0.00 73 1008.3
20260901071051 14 262 4.8 12.9 0.00 0.00 0.00 74 1008.4
20260901070026 14 233 4.8 9.7 0.00 0.00 0.00 76 1008.3
20260901065022 14 177 3.2 11.3 0.00 0.00 0.00 78 1008.2
20260901064016 13 237 4.8 14.5 0.00 0.00 0.00 81 1008.1
20260901063032 13 256 6.4 11.3 0.00 0.00 0.00 85 1008.0
20260901062027 12 223 3.2 6.4 0.00 0.00 0.00 87 1008.1
20260901061023 12 230 3.2 4.8 0.00 0.00 0.00 90 1008.0
20260901060018 12 245 3.2 6.4 0.00 0.00 0.00 90 1007.9
20260901055115 12 226 1.6 6.4 0.00 0.00 0.00 91 1007.9
20260901054028 12 209 1.6 6.4 0.00 0.00 0.00 92 1007.7
20260901053044 11 218 1.6 4.8 0.00 0.00 0.00 94 1007.9
20260901052019 11 239 1.6 4.8 0.00 0.00 0.00 94 1007.8
20260901051034 11 223 1.6 3.2 0.00 0.00 0.00 95 1007.9
20260901050029 11 222 1.6 4.8 0.00 0.00 0.00 96 1007.9
20260901044538 11 231 1.6 4.8 0.00 0.00 0.00 98 1007.7
20260901043533 11 207 0.0 1.6 0.00 0.00 0.00 98 1007.6
20260901042528 11 223 1.6 4.8 0.00 0.03 0.00 99 1007.7
20260901041523 11 192 0.0 1.6 0.00 0.03 0.00 99 1007.6
20260901040538 11 195 0.0 1.6 0.00 0.03 0.00 99 1007.5
20260901035533 11 195 0.0 1.6 0.00 0.03 0.00 98 1007.5
20260901034610 11 206 0.0 3.2 0.00 0.05 0.00 98 1007.4
20260901033523 12 204 1.6 3.2 0.00 0.05 0.00 98 1007.3
20260901032539 12 212 1.6 3.2 0.00 0.05 0.00 97 1007.3
20260901031534 12 209 1.6 3.2 0.00 0.08 0.00 95 1007.3
20260901030529 12 213 1.6 4.8 0.00 0.08 0.00 96 1007.3
20260901025526 12 212 1.6 4.8 0.00 0.10 0.00 98 1007.1
20260901024541 12 219 1.6 4.8 0.00 0.10 0.00 99 1007.0
20260901023516 12 201 0.0 1.6 0.00 0.13 0.00 99 1007.0
20260901022532 12 206 1.6 1.6 0.00 0.13 0.00 99 1006.9
20260901021527 12 0.0 0.0 0.00 0.13 0.00 99 1006.7
20260901020542 13 211 1.6 3.2 0.00 0.13 0.00 99 1006.6
20260901015518 12 203 0.0 3.2 0.00 0.13 0.00 99 1006.6
20260901014533 12 202 0.0 1.6 0.00 0.13 0.00 99 1006.5
20260901013528 12 0.0 0.0 0.00 0.13 0.00 98 1006.3
20260901012544 13 0.0 0.0 0.00 0.13 0.00 98 1006.1
20260901011519 13 229 1.6 4.8 0.00 0.13 0.00 98 1006.2
20260901010534 13 219 1.6 4.8 0.00 0.13 0.00 98 1006.1
20260901005550 13 228 3.2 4.8 0.00 0.13 0.00 98 1006.1
20260901004524 13 213 1.6 3.2 0.00 0.13 0.00 98 1006.0
20260901003519 13 224 1.6 4.8 0.00 0.13 0.00 98 1006.0
20260901002535 13 225 1.6 4.8 0.00 0.13 0.00 99 1006.1
20260901001531 13 219 1.6 3.2 0.00 0.13 0.00 99 1005.9
20260901000546 12 0.0 0.0 0.00 0.13 0.00 99 1005.8
20260831235521 12 0.0 0.0 0.00 0.13 0.00 99 1005.9
20260831234516 12 0.0 0.0 0.00 0.13 0.00 99 1005.8
20260831233532 12 0.0 0.0 0.00 0.13 0.00 99 1005.9
20260831232526 12 0.0 0.0 0.00 0.13 0.00 99 1005.8
20260831231521 12 0.0 0.0 0.00 0.13 0.00 99 1005.8
20260831230517 12 0.0 0.0 0.00 0.13 0.00 99 1005.8
20260831225532 11 0.0 0.0 0.00 0.13 0.00 99 1005.7
20260831224527 12 0.0 0.0 0.00 0.13 0.00 99 1005.7
20260831223523 11 0.0 0.0 0.00 0.13 0.00 99 1005.6
20260831222518 11 0.0 0.0 0.00 0.13 0.00 99 1005.7
20260831221533 11 0.0 0.0 0.00 0.13 0.00 99 1005.6
20260831220529 11 0.0 0.0 0.00 0.13 0.00 99 1005.3
20260831215524 12 0.0 0.0 0.00 0.13 0.13 99 1005.4
20260831214540 12 0.0 0.0 0.00 0.13 0.13 99 1005.3
20260831213534 12 0.0 0.0 0.00 0.13 0.13 99 1005.5
20260831212530 12 0.0 0.0 0.00 0.13 0.13 98 1005.3
20260831211526 12 197 1.6 1.6 0.00 0.13 0.13 98 1005.5
20260831210521 12 0.0 0.0 0.00 0.13 0.13 98 1005.5
20260831205516 13 169 0.0 1.6 0.00 0.13 0.13 97 1005.3
20260831204551 13 165 0.0 1.6 0.00 0.13 0.13 97 1005.3
20260831203526 13 0.0 0.0 0.00 0.13 0.13 96 1005.2
20260831202521 14 166 0.0 1.6 0.00 0.13 0.13 94 1005.3
20260831201517 14 165 0.0 1.6 0.00 0.13 0.13 93 1005.4
20260831200532 15 192 0.0 3.2 0.00 0.13 0.13 91 1005.3
20260831195528 15 224 1.6 4.8 0.00 0.13 0.13 91 1005.1
20260831194523 15 220 3.2 6.4 0.00 0.13 0.13 90 1005.2
20260831193518 15 189 0.0 1.6 0.00 0.13 0.13 89 1005.2
20260831192533 15 208 1.6 4.8 0.00 0.13 0.13 89 1005.0
20260831191528 15 198 1.6 6.4 0.00 0.13 0.13 90 1005.1
20260831190523 16 200 0.0 4.8 0.00 0.13 0.13 89 1005.0
20260831185518 16 215 1.6 9.7 0.00 0.13 0.13 89 1005.0
20260831184533 16 203 1.6 3.2 0.00 0.13 0.13 90 1005.0
20260831183548 16 196 1.6 3.2 0.00 0.13 0.13 90 1005.0
20260831182543 16 195 1.6 4.8 0.00 0.13 0.13 90 1004.8
20260831181519 16 202 0.0 3.2 0.00 0.13 0.13 89 1004.8
20260831180555 16 197 1.6 4.8 0.00 0.13 0.13 89 1004.6
20260831175530 16 191 0.0 1.6 0.00 0.13 0.13 88 1004.6
20260831174546 17 191 1.6 3.2 0.00 0.13 0.13 85 1004.4
20260831173520 17 191 1.6 3.2 0.00 0.13 0.13 83 1004.5
20260831172535 17 190 1.6 4.8 0.00 0.13 0.13 83 1004.5
20260831171532 18 193 1.6 4.8 0.00 0.13 0.13 81 1004.5
20260831170526 18 220 1.6 9.7 0.00 0.13 0.13 78 1004.4
20260831165521 19 197 3.2 6.4 0.00 0.13 0.13 77 1004.3
20260831164516 20 209 3.2 9.7 0.00 0.13 0.13 75 1004.3
20260831163531 20 186 1.6 9.7 0.00 0.13 0.13 72 1004.1
20260831162527 20 189 1.6 4.8 0.00 0.13 0.13 71 1003.8
20260831161522 20 189 1.6 9.7 0.00 0.13 0.13 71 1003.9
20260831160522 20 219 4.8 12.9 0.00 0.13 0.13 70 1003.9
20260831155654 20 230 3.2 11.3 0.00 0.13 0.13 70 1003.8
20260831154529 20 217 3.2 9.7 0.00 0.13 0.13 70 1004.0
20260831153524 20 241 6.4 11.3 0.00 0.13 0.13 71 1004.0
20260831152519 20 198 3.2 6.4 0.00 0.13 0.13 71 1004.1
20260831151534 20 205 1.6 6.4 0.00 0.13 0.13 73 1004.1
20260831150529 20 233 6.4 16.1 0.00 0.13 0.13 73 1004.1
20260831145524 21 210 4.8 12.9 0.00 0.13 0.13 72 1004.1
20260831144520 20 196 3.2 9.7 0.00 0.13 0.13 75 1004.2
20260831143555 20 209 3.2 6.4 0.00 0.13 0.13 76 1004.1
20260831142531 19 193 3.2 9.7 0.00 0.13 0.13 76 1004.1
20260831141525 19 199 3.2 11.3 0.00 0.13 0.13 77 1004.1
20260831140520 20 204 4.8 14.5 0.00 0.13 0.13 76 1004.0
20260831135515 20 199 3.2 6.4 0.00 0.13 0.13 76 1004.1
20260831134530 20 225 4.8 12.9 0.00 0.13 0.13 75 1004.1
20260831133646 20 206 4.8 12.9 0.00 0.13 0.13 76 1004.0
20260831132522 20 200 4.8 12.9 0.00 0.13 0.13 74 1004.0
20260831131537 20 210 4.8 11.3 0.00 0.13 0.13 74 1003.8
20260831130533 21 228 6.4 16.1 0.00 0.13 0.13 70 1003.7
20260831125527 20 212 4.8 9.7 0.00 0.13 0.13 74 1003.7
20260831124522 21 202 4.8 9.7 0.00 0.13 0.13 72 1003.7
20260831123518 21 242 6.4 12.9 0.00 0.13 0.13 70 1003.7
20260831122533 21 238 6.4 12.9 0.00 0.13 0.13 70 1003.7
20260831121528 20 225 4.8 11.3 0.00 0.13 0.13 73 1003.9
20260831120543 20 217 4.8 14.5 0.00 0.13 0.13 74 1003.8
20260831115518 20 232 4.8 11.3 0.00 0.13 0.13 75 1003.8
20260831114533 19 205 3.2 12.9 0.00 0.13 0.13 80 1003.8
20260831113528 19 214 4.8 11.3 0.00 0.13 0.13 82 1003.7
20260831112543 20 237 6.4 14.5 0.00 0.15 0.13 79 1003.8
20260831111518 20 225 6.4 17.7 0.00 0.18 0.13 81 1003.6
20260831110559 19 232 4.8 11.3 0.00 0.20 0.13 83 1003.7
20260831105549 20 225 4.8 12.9 0.00 0.25 0.13 82 1003.7
20260831104544 19 209 3.2 6.4 0.00 0.25 0.13 85 1003.6
20260831103520 19 225 4.8 9.7 0.00 0.25 0.13 86 1003.6
20260831102555 18 236 4.8 6.4 0.00 0.25 0.13 88 1003.6
20260831101531 17 207 3.2 4.8 0.00 0.25 0.13 92 1003.7
20260831100530 17 223 3.2 9.7 0.00 0.25 0.13 96 1003.7